Regional Weather Roundup
Issued by NWS Charleston, WV

Home | Current Version | Previous Version | Graphics & Text | Print | Product List | Glossary On
Versions: 1 2 3 4 5 6 7 8 9 10 11 12 13 14 15 16 17 18 19 20 21 22 23 24 25 26 27 28 29 30 31 32 33 34 35 36 37 38 39 40 41 42 43 44 45 46 47 48 49 50
334
ASUS41 KRLX 062210
RWRRLX
CRWRWRRLX ALL
West Virginia Regional Weather Roundup
National Weather Service Charleston WV
Issued by National Weather Service Pittsburgh PA
500 PM EST TUE DEC 06 2016

Note: "fair" indicates few or no clouds below 12,000 feet with no
significant weather and/or obstructions to visibility.

WVZ003-062300-
Northern Panhandle of West Virginia

CITY           SKY/WX    TMP DP  RH WIND       PRES   REMARKS
WHEELING       LGT RAIN  40  38  93 SE10      29.69S FOG
$$

WVZ009-062300-
Northwest West Virginia

CITY           SKY/WX    TMP DP  RH WIND       PRES   REMARKS
PARKERSBURG    LGT RAIN  45  42  89 S5        29.71S FOG
$$

WVZ006-062300-
Western West Virginia

CITY           SKY/WX    TMP DP  RH WIND       PRES   REMARKS
HUNTINGTON     LGT RAIN  50  48  93 SW3       29.70R FOG
$$

WVZ015-062300-
West Central West Virginia

CITY           SKY/WX    TMP DP  RH WIND       PRES   REMARKS
CHARLESTON     LGT RAIN  47  41  80 VRB3      29.69S
$$

WVZ031-062300-
North Central West Virginia

CITY           SKY/WX    TMP DP  RH WIND       PRES   REMARKS
CLARKSBURG     LGT RAIN  43  39  86 SE7       29.73R
MORGANTOWN     LGT RAIN  43  36  76 SE8       29.74R
$$

WVZ035-042-062300-
South Central West Virginia

CITY           SKY/WX    TMP DP  RH WIND       PRES   REMARKS
BECKLEY        CLOUDY    39  36  89 SE8       29.73R
BLUEFIELD      CLOUDY    37  35  92 VRB5      29.75R
$$

WVZ045-062300-
Greenbrier Valley of West Virginia

CITY           SKY/WX    TMP DP  RH WIND       PRES   REMARKS
LEWISBURG      DRIZZLE   35  34  97 CALM      29.77R
$$

WVZ047-062300-
Northern Mountains of West Virginia

CITY           SKY/WX    TMP DP  RH WIND       PRES   REMARKS
ELKINS         LGT RAIN  40  34  79 S6        29.75R
$$

WVZ052-062300-
Eastern Panhandle of West Virginia

CITY           SKY/WX    TMP DP  RH WIND       PRES   REMARKS
MARTINSBURG    LGT RAIN  37  36  96 N7        29.85S FOG
PETERSBURG     MIX PCPN  37  36  98 CALM      29.87R
$$




USA.gov is the U.S. government's official web portal to all federal, state and local government web resources and services.